Year,Month,Day,Hour,Minute,Value (Times are PST for temperature in C)
2018,12,12,00,00,8.10
2018,12,12,00,01,8.10
2018,12,12,00,02,8.00
2018,12,12,00,03,8.00
2018,12,12,00,04,8.00
2018,12,12,00,05,7.90
2018,12,12,00,06,7.90
2018,12,12,00,07,7.90
2018,12,12,00,08,7.80
2018,12,12,00,09,7.90
2018,12,12,00,10,7.90
2018,12,12,00,11,7.90
2018,12,12,00,12,7.90
2018,12,12,00,13,7.90
2018,12,12,00,14,7.90
2018,12,12,00,15,7.90
2018,12,12,00,16,7.90
2018,12,12,00,17,7.90
2018,12,12,00,18,7.90
2018,12,12,00,19,7.90
2018,12,12,00,20,7.90
2018,12,12,00,21,7.90
2018,12,12,00,22,7.90
2018,12,12,00,23,7.80
2018,12,12,00,24,7.80
2018,12,12,00,25,7.80
2018,12,12,00,26,7.80
2018,12,12,00,27,7.80
2018,12,12,00,28,7.70
2018,12,12,00,29,7.70
2018,12,12,00,30,7.70
2018,12,12,00,31,7.70
2018,12,12,00,32,7.70
2018,12,12,00,33,7.60
2018,12,12,00,34,7.60
2018,12,12,00,35,7.60
2018,12,12,00,36,7.60
2018,12,12,00,37,7.50
2018,12,12,00,38,7.50
2018,12,12,00,39,7.40
2018,12,12,00,40,7.40
2018,12,12,00,41,7.40
2018,12,12,00,42,7.40
2018,12,12,00,43,7.30
2018,12,12,00,44,7.30
2018,12,12,00,45,7.30
2018,12,12,00,46,7.30
2018,12,12,00,47,7.30
2018,12,12,00,48,7.30
2018,12,12,00,49,7.30
2018,12,12,00,50,7.30
2018,12,12,00,51,7.30
2018,12,12,00,52,7.30
2018,12,12,00,53,7.20
2018,12,12,00,54,7.20
2018,12,12,00,55,7.20
2018,12,12,00,56,7.20
2018,12,12,00,57,7.20
2018,12,12,00,58,7.20
2018,12,12,00,59,7.20
2018,12,12,01,00,7.30
2018,12,12,01,01,7.30
2018,12,12,01,02,7.30
2018,12,12,01,03,7.30
2018,12,12,01,04,7.30
2018,12,12,01,05,7.30
2018,12,12,01,06,7.30
2018,12,12,01,07,7.30
2018,12,12,01,08,7.40
2018,12,12,01,09,7.40
2018,12,12,01,10,7.40
2018,12,12,01,11,7.40
2018,12,12,01,12,7.40
2018,12,12,01,13,7.40
2018,12,12,01,14,7.40
2018,12,12,01,15,7.40
2018,12,12,01,16,7.50
2018,12,12,01,17,7.50
2018,12,12,01,18,7.50
2018,12,12,01,19,7.60
2018,12,12,01,20,7.60
2018,12,12,01,21,7.70
2018,12,12,01,22,7.70
2018,12,12,01,23,7.70
2018,12,12,01,24,7.70
2018,12,12,01,25,7.70
2018,12,12,01,26,7.70
2018,12,12,01,27,7.70
2018,12,12,01,28,7.70
2018,12,12,01,29,7.70
2018,12,12,01,30,7.70
2018,12,12,01,31,7.60
2018,12,12,01,32,7.50
2018,12,12,01,33,7.50
2018,12,12,01,34,7.40
2018,12,12,01,35,7.40
2018,12,12,01,36,7.40
2018,12,12,01,37,7.40
2018,12,12,01,38,7.40
2018,12,12,01,39,7.30
2018,12,12,01,40,7.30
2018,12,12,01,41,7.30
2018,12,12,01,42,7.30
2018,12,12,01,43,7.30
2018,12,12,01,44,7.30
2018,12,12,01,45,7.30
2018,12,12,01,46,7.30
2018,12,12,01,47,7.40
2018,12,12,01,48,7.40
2018,12,12,01,49,7.40
2018,12,12,01,50,7.40
2018,12,12,01,51,7.40
2018,12,12,01,52,7.40
2018,12,12,01,53,7.40
2018,12,12,01,54,7.40
2018,12,12,01,55,7.40
2018,12,12,01,56,7.40
2018,12,12,01,57,7.40
2018,12,12,01,58,7.40
2018,12,12,01,59,7.40
2018,12,12,02,00,7.40
2018,12,12,02,01,7.40
2018,12,12,02,02,7.40
2018,12,12,02,03,7.50
2018,12,12,02,04,7.50
2018,12,12,02,05,7.50
2018,12,12,02,06,7.50
2018,12,12,02,07,7.50
2018,12,12,02,08,7.50
2018,12,12,02,09,7.50
2018,12,12,02,10,7.50
2018,12,12,02,11,7.50
2018,12,12,02,12,7.50
2018,12,12,02,13,7.50
2018,12,12,02,14,7.40
2018,12,12,02,15,7.40
2018,12,12,02,16,7.40
2018,12,12,02,17,7.40
2018,12,12,02,18,7.40
2018,12,12,02,19,7.40
2018,12,12,02,20,7.40
2018,12,12,02,21,7.40
2018,12,12,02,22,7.50
2018,12,12,02,23,7.50
2018,12,12,02,24,7.60
2018,12,12,02,25,7.60
2018,12,12,02,26,7.70
2018,12,12,02,27,7.70
2018,12,12,02,28,7.70
2018,12,12,02,29,7.70
2018,12,12,02,30,7.70
2018,12,12,02,31,7.70
2018,12,12,02,32,7.70
2018,12,12,02,33,7.70
2018,12,12,02,34,7.70
2018,12,12,02,35,7.70
2018,12,12,02,36,7.70
2018,12,12,02,37,7.70
2018,12,12,02,38,7.80
2018,12,12,02,39,7.80
2018,12,12,02,40,7.80
2018,12,12,02,41,7.80
2018,12,12,02,42,7.90
2018,12,12,02,43,7.90
2018,12,12,02,44,7.90
2018,12,12,02,45,7.90
2018,12,12,02,46,7.90
2018,12,12,02,47,7.90
2018,12,12,02,48,7.90
2018,12,12,02,49,7.90
2018,12,12,02,50,7.80
2018,12,12,02,51,7.80
2018,12,12,02,52,7.70
2018,12,12,02,53,7.60
2018,12,12,02,54,7.50
2018,12,12,02,55,7.40
2018,12,12,02,56,7.30
2018,12,12,02,57,7.20
2018,12,12,02,58,7.10
2018,12,12,02,59,6.90
2018,12,12,03,00,6.80
2018,12,12,03,01,6.70
2018,12,12,03,02,6.60
2018,12,12,03,03,6.40
2018,12,12,03,04,6.30
2018,12,12,03,05,6.30
2018,12,12,03,06,6.20
2018,12,12,03,07,6.10
2018,12,12,03,08,6.00
2018,12,12,03,09,5.90
2018,12,12,03,10,5.90
2018,12,12,03,11,5.80
2018,12,12,03,12,5.80
2018,12,12,03,13,5.70
2018,12,12,03,14,5.70
2018,12,12,03,15,5.70
2018,12,12,03,16,5.60
2018,12,12,03,17,5.60
2018,12,12,03,18,5.60
2018,12,12,03,19,5.50
2018,12,12,03,20,5.50
2018,12,12,03,21,5.40
2018,12,12,03,22,5.40
2018,12,12,03,23,5.40
2018,12,12,03,24,5.30
2018,12,12,03,25,5.30
2018,12,12,03,26,5.30
2018,12,12,03,27,5.20
2018,12,12,03,28,5.20
2018,12,12,03,29,5.20
2018,12,12,03,30,5.20
2018,12,12,03,31,5.10
2018,12,12,03,32,5.10
2018,12,12,03,33,5.10
2018,12,12,03,34,5.10
2018,12,12,03,35,5.10
2018,12,12,03,36,5.00
2018,12,12,03,37,5.00
2018,12,12,03,38,5.00
2018,12,12,03,39,5.00
2018,12,12,03,40,4.90
2018,12,12,03,41,4.90
2018,12,12,03,42,4.90
2018,12,12,03,43,4.80
2018,12,12,03,44,4.80
2018,12,12,03,45,4.80
2018,12,12,03,46,4.80
2018,12,12,03,47,4.80
2018,12,12,03,48,4.80
2018,12,12,03,49,4.80
2018,12,12,03,50,4.80
2018,12,12,03,51,4.70
2018,12,12,03,52,4.70
2018,12,12,03,53,4.70
2018,12,12,03,54,4.80
2018,12,12,03,55,4.80
2018,12,12,03,56,4.80
2018,12,12,03,57,4.80
2018,12,12,03,58,4.80
2018,12,12,03,59,4.80
2018,12,12,04,00,4.80
2018,12,12,04,01,4.70
2018,12,12,04,02,4.70
2018,12,12,04,03,4.70
2018,12,12,04,04,4.70
2018,12,12,04,05,4.70
2018,12,12,04,06,4.70
2018,12,12,04,07,4.70
2018,12,12,04,08,4.70
2018,12,12,04,09,4.70
2018,12,12,04,10,4.70
2018,12,12,04,11,4.70
2018,12,12,04,12,4.70
2018,12,12,04,13,4.70
2018,12,12,04,14,4.70
2018,12,12,04,15,4.70
2018,12,12,04,16,4.70
2018,12,12,04,17,4.70
2018,12,12,04,18,4.70
2018,12,12,04,19,4.70
2018,12,12,04,20,4.70
2018,12,12,04,21,4.70
2018,12,12,04,22,4.70
2018,12,12,04,23,4.80
2018,12,12,04,24,4.80
2018,12,12,04,25,4.80
2018,12,12,04,26,4.80
2018,12,12,04,27,4.80
2018,12,12,04,28,4.80
2018,12,12,04,29,4.80
2018,12,12,04,30,4.80
2018,12,12,04,31,4.90
2018,12,12,04,32,4.90
2018,12,12,04,33,4.90
2018,12,12,04,34,4.90
2018,12,12,04,35,4.90
2018,12,12,04,36,4.90
2018,12,12,04,37,4.90
2018,12,12,04,38,4.90
2018,12,12,04,39,4.90
2018,12,12,04,40,5.00
2018,12,12,04,41,5.00
2018,12,12,04,42,5.00
2018,12,12,04,43,5.00
2018,12,12,04,44,5.00
2018,12,12,04,45,4.90
2018,12,12,04,46,4.90
2018,12,12,04,47,4.90
2018,12,12,04,48,4.90
2018,12,12,04,49,4.90
2018,12,12,04,50,4.80
2018,12,12,04,51,4.80
2018,12,12,04,52,4.80
2018,12,12,04,53,4.80
2018,12,12,04,54,4.80
2018,12,12,04,55,4.80
2018,12,12,04,56,4.80
2018,12,12,04,57,4.80
2018,12,12,04,58,4.80
2018,12,12,04,59,4.80
2018,12,12,05,00,4.70
2018,12,12,05,01,4.60
2018,12,12,05,02,4.60
2018,12,12,05,03,4.60
2018,12,12,05,04,4.50
2018,12,12,05,05,4.50
2018,12,12,05,06,4.40
2018,12,12,05,07,4.40
2018,12,12,05,08,4.40
2018,12,12,05,09,4.40
2018,12,12,05,10,4.30
2018,12,12,05,11,4.30
2018,12,12,05,12,4.30
2018,12,12,05,13,4.30
2018,12,12,05,14,4.30
2018,12,12,05,15,4.30
2018,12,12,05,16,4.20
2018,12,12,05,17,4.20
2018,12,12,05,18,4.20
2018,12,12,05,19,4.20
2018,12,12,05,20,4.20
2018,12,12,05,21,4.20
2018,12,12,05,22,4.20
2018,12,12,05,23,4.20
2018,12,12,05,24,4.10
2018,12,12,05,25,4.10
2018,12,12,05,26,4.10
2018,12,12,05,27,4.10
2018,12,12,05,28,4.00
2018,12,12,05,29,4.00
2018,12,12,05,30,4.00
2018,12,12,05,31,4.00
2018,12,12,05,32,4.00
2018,12,12,05,33,4.00
2018,12,12,05,34,4.00
2018,12,12,05,35,4.10
2018,12,12,05,36,4.10
2018,12,12,05,37,4.10
2018,12,12,05,38,4.10
2018,12,12,05,39,4.10
2018,12,12,05,40,4.00
2018,12,12,05,41,4.00
2018,12,12,05,42,4.00
2018,12,12,05,43,4.00
2018,12,12,05,44,4.00
2018,12,12,05,45,4.00
2018,12,12,05,46,4.00
2018,12,12,05,47,4.00
2018,12,12,05,48,4.10
2018,12,12,05,49,4.10
2018,12,12,05,50,4.10
2018,12,12,05,51,4.10
2018,12,12,05,52,4.10
2018,12,12,05,53,4.00
2018,12,12,05,54,4.10
2018,12,12,05,55,4.10
2018,12,12,05,56,4.10
2018,12,12,05,57,4.10
2018,12,12,05,58,4.10
2018,12,12,05,59,4.10
2018,12,12,06,00,4.10
2018,12,12,06,01,4.10
2018,12,12,06,02,4.10
2018,12,12,06,03,4.20
2018,12,12,06,04,4.20
2018,12,12,06,05,4.20
2018,12,12,06,06,4.20
2018,12,12,06,07,4.20
2018,12,12,06,08,4.20
2018,12,12,06,09,4.20
2018,12,12,06,10,4.20
2018,12,12,06,11,4.20
2018,12,12,06,12,4.20
2018,12,12,06,13,4.20
2018,12,12,06,14,4.20
2018,12,12,06,15,4.20
2018,12,12,06,16,4.10
2018,12,12,06,17,4.10
2018,12,12,06,18,4.10
2018,12,12,06,19,4.10
2018,12,12,06,20,4.10
2018,12,12,06,21,4.00
2018,12,12,06,22,4.00
2018,12,12,06,23,4.00
2018,12,12,06,24,4.00
2018,12,12,06,25,4.00
2018,12,12,06,26,3.90
2018,12,12,06,27,3.90
2018,12,12,06,28,3.90
2018,12,12,06,29,3.90
2018,12,12,06,30,3.90
2018,12,12,06,31,3.90
2018,12,12,06,32,3.90
2018,12,12,06,33,3.90
2018,12,12,06,34,3.90
2018,12,12,06,35,3.90
2018,12,12,06,36,3.90
2018,12,12,06,37,4.00
2018,12,12,06,38,4.00
2018,12,12,06,39,4.00
2018,12,12,06,40,4.10
2018,12,12,06,41,4.10
2018,12,12,06,42,4.10
2018,12,12,06,43,4.10
2018,12,12,06,44,4.10
2018,12,12,06,45,4.20
2018,12,12,06,46,4.20
2018,12,12,06,47,4.20
2018,12,12,06,48,4.20
2018,12,12,06,49,4.20
2018,12,12,06,50,4.30
2018,12,12,06,51,4.30
2018,12,12,06,52,4.30
2018,12,12,06,53,4.30
2018,12,12,06,54,4.30
2018,12,12,06,55,4.30
2018,12,12,06,56,4.30
2018,12,12,06,57,4.30
2018,12,12,06,58,4.30
2018,12,12,06,59,4.30
2018,12,12,07,00,4.30
2018,12,12,07,01,4.30
2018,12,12,07,02,4.30
2018,12,12,07,03,4.40
2018,12,12,07,04,4.40
2018,12,12,07,05,4.40
2018,12,12,07,06,4.40
2018,12,12,07,07,4.30
2018,12,12,07,08,4.30
2018,12,12,07,09,4.30
2018,12,12,07,10,4.30
2018,12,12,07,11,4.30
2018,12,12,07,12,4.30
2018,12,12,07,13,4.30
2018,12,12,07,14,4.30
2018,12,12,07,15,4.30
2018,12,12,07,16,4.30
2018,12,12,07,17,4.20
2018,12,12,07,18,4.20
2018,12,12,07,19,4.20
2018,12,12,07,20,4.20
2018,12,12,07,21,4.20
2018,12,12,07,22,4.20
2018,12,12,07,23,4.20
2018,12,12,07,24,4.20
2018,12,12,07,25,4.20
2018,12,12,07,26,4.20
2018,12,12,07,27,4.20
2018,12,12,07,28,4.10
2018,12,12,07,29,4.20
2018,12,12,07,30,4.20
2018,12,12,07,31,4.20
2018,12,12,07,32,4.20
2018,12,12,07,33,4.20
2018,12,12,07,34,4.20
2018,12,12,07,35,4.30
2018,12,12,07,36,4.30
2018,12,12,07,37,4.30
2018,12,12,07,38,4.30
2018,12,12,07,39,4.30
2018,12,12,07,40,4.30
2018,12,12,07,41,4.30
2018,12,12,07,42,4.30
2018,12,12,07,43,4.30
2018,12,12,07,44,4.30
2018,12,12,07,45,4.20
2018,12,12,07,46,4.20
2018,12,12,07,47,4.20
2018,12,12,07,48,4.20
2018,12,12,07,49,4.20
2018,12,12,07,50,4.20
2018,12,12,07,51,4.20
2018,12,12,07,52,4.20
2018,12,12,07,53,4.20
2018,12,12,07,54,4.20
2018,12,12,07,55,4.20
2018,12,12,07,56,4.20
2018,12,12,07,57,4.20
2018,12,12,07,58,4.20
2018,12,12,07,59,4.30
2018,12,12,08,00,4.30
2018,12,12,08,01,4.30
2018,12,12,08,02,4.30
2018,12,12,08,03,4.30
2018,12,12,08,04,4.30
2018,12,12,08,05,4.30
2018,12,12,08,06,4.30
2018,12,12,08,07,4.30
2018,12,12,08,08,4.30
2018,12,12,08,09,4.20
2018,12,12,08,10,4.20
2018,12,12,08,11,4.20
2018,12,12,08,12,4.20
2018,12,12,08,13,4.20
2018,12,12,08,14,4.20
2018,12,12,08,15,4.20
2018,12,12,08,16,4.20
2018,12,12,08,17,4.20
2018,12,12,08,18,4.30
2018,12,12,08,19,4.20
2018,12,12,08,20,4.20
2018,12,12,08,21,4.20
2018,12,12,08,22,4.20
2018,12,12,08,23,4.20
2018,12,12,08,24,4.20
2018,12,12,08,25,4.20
2018,12,12,08,26,4.20
2018,12,12,08,27,4.20
2018,12,12,08,28,4.30
2018,12,12,08,29,4.30
2018,12,12,08,30,4.30
2018,12,12,08,31,4.30
2018,12,12,08,32,4.30
2018,12,12,08,33,4.40
2018,12,12,08,34,4.40
2018,12,12,08,35,4.50
2018,12,12,08,36,4.50
2018,12,12,08,37,4.50
2018,12,12,08,38,4.60
2018,12,12,08,39,4.60
2018,12,12,08,40,4.60
2018,12,12,08,41,4.60
2018,12,12,08,42,4.70
2018,12,12,08,43,4.70
2018,12,12,08,44,4.70
2018,12,12,08,45,4.70
2018,12,12,08,46,4.80
2018,12,12,08,47,4.80
2018,12,12,08,48,4.80
2018,12,12,08,49,4.80
2018,12,12,08,50,4.80
2018,12,12,08,51,4.80
2018,12,12,08,52,4.90
2018,12,12,08,53,4.90
2018,12,12,08,54,5.00
2018,12,12,08,55,5.00
2018,12,12,08,56,5.00
2018,12,12,08,57,5.00
2018,12,12,08,58,5.00
2018,12,12,08,59,5.10
2018,12,12,09,00,5.10
2018,12,12,09,01,5.20
2018,12,12,09,02,5.20
2018,12,12,09,03,5.20
2018,12,12,09,04,5.30
2018,12,12,09,05,5.30
2018,12,12,09,06,5.30
2018,12,12,09,07,5.30
2018,12,12,09,08,5.30
2018,12,12,09,09,5.40
2018,12,12,09,10,5.40
2018,12,12,09,11,5.40
2018,12,12,09,12,5.40
2018,12,12,09,13,5.40
2018,12,12,09,14,5.50
2018,12,12,09,15,5.50
2018,12,12,09,16,5.50
2018,12,12,09,17,5.50
2018,12,12,09,18,5.60
2018,12,12,09,19,5.50
2018,12,12,09,20,5.50
2018,12,12,09,21,5.60
2018,12,12,09,22,5.60
2018,12,12,09,23,5.70
2018,12,12,09,24,5.70
2018,12,12,09,25,5.80
2018,12,12,09,26,5.90
2018,12,12,09,27,5.90
2018,12,12,09,28,5.90
2018,12,12,09,29,6.00
2018,12,12,09,30,6.00
2018,12,12,09,31,6.10
2018,12,12,09,32,6.10
2018,12,12,09,33,6.10
2018,12,12,09,34,6.10
2018,12,12,09,35,6.20
2018,12,12,09,36,6.20
2018,12,12,09,37,6.30
2018,12,12,09,38,6.30
2018,12,12,09,39,6.40
2018,12,12,09,40,6.40
2018,12,12,09,41,6.40
2018,12,12,09,42,6.50
2018,12,12,09,43,6.60
2018,12,12,09,44,6.60
2018,12,12,09,45,6.60
2018,12,12,09,46,6.70
2018,12,12,09,47,6.80
2018,12,12,09,48,6.80
2018,12,12,09,49,6.90
2018,12,12,09,50,6.90
2018,12,12,09,51,7.00
2018,12,12,09,52,7.00
2018,12,12,09,53,7.10
2018,12,12,09,54,7.10
2018,12,12,09,55,7.10
2018,12,12,09,56,7.10
2018,12,12,09,57,7.10
2018,12,12,09,58,7.20
2018,12,12,09,59,7.20
2018,12,12,10,00,7.30
2018,12,12,10,01,7.30
2018,12,12,10,02,7.30
2018,12,12,10,03,7.30
2018,12,12,10,04,7.30
2018,12,12,10,05,7.40
2018,12,12,10,06,7.40
2018,12,12,10,07,7.50
2018,12,12,10,08,7.50
2018,12,12,10,09,7.60
2018,12,12,10,10,7.60
2018,12,12,10,11,7.60
2018,12,12,10,12,7.60
2018,12,12,10,13,7.70
2018,12,12,10,14,7.70
2018,12,12,10,15,7.70
2018,12,12,10,16,7.80
2018,12,12,10,17,7.80
2018,12,12,10,18,7.90
2018,12,12,10,19,7.90
2018,12,12,10,20,8.00
2018,12,12,10,21,8.00
2018,12,12,10,22,8.10
2018,12,12,10,23,8.10
2018,12,12,10,24,8.20
2018,12,12,10,25,8.20
2018,12,12,10,26,8.20
2018,12,12,10,27,8.20
2018,12,12,10,28,8.30
2018,12,12,10,29,8.30
2018,12,12,10,30,8.30
2018,12,12,10,31,8.40
2018,12,12,10,32,8.40
2018,12,12,10,33,8.40
2018,12,12,10,34,8.50
2018,12,12,10,35,8.50
2018,12,12,10,36,8.50
2018,12,12,10,37,8.60
2018,12,12,10,38,8.60
2018,12,12,10,39,8.60
2018,12,12,10,40,8.60
2018,12,12,10,41,8.60
2018,12,12,10,42,8.70
2018,12,12,10,43,8.70
2018,12,12,10,44,8.70
2018,12,12,10,45,8.70
2018,12,12,10,46,8.70
2018,12,12,10,47,8.70
2018,12,12,10,48,8.70
2018,12,12,10,49,8.70
2018,12,12,10,50,8.60
2018,12,12,10,51,8.70
2018,12,12,10,52,8.60
2018,12,12,10,53,8.60
2018,12,12,10,54,8.60
2018,12,12,10,55,8.70
2018,12,12,10,56,8.60
2018,12,12,10,57,8.60
2018,12,12,10,58,8.60
2018,12,12,10,59,8.60
2018,12,12,11,00,8.60
2018,12,12,11,01,8.60
2018,12,12,11,02,8.60
2018,12,12,11,03,8.60
2018,12,12,11,04,8.60
2018,12,12,11,05,8.60
2018,12,12,11,06,8.60
2018,12,12,11,07,8.50
2018,12,12,11,08,8.50
2018,12,12,11,09,8.40
2018,12,12,11,10,8.30
2018,12,12,11,11,8.20
2018,12,12,11,12,8.00
2018,12,12,11,13,7.80
2018,12,12,11,14,7.60
2018,12,12,11,15,7.50
2018,12,12,11,16,7.40
2018,12,12,11,17,7.40
2018,12,12,11,18,7.30
2018,12,12,11,19,7.30
2018,12,12,11,20,7.20
2018,12,12,11,21,7.20
2018,12,12,11,22,7.20
2018,12,12,11,23,7.20
2018,12,12,11,24,7.20
2018,12,12,11,25,7.20
2018,12,12,11,26,7.20
2018,12,12,11,27,7.20
2018,12,12,11,28,7.30
2018,12,12,11,29,7.30
2018,12,12,11,30,7.30
2018,12,12,11,31,7.30
2018,12,12,11,32,7.30
2018,12,12,11,33,7.40
2018,12,12,11,34,7.40
2018,12,12,11,35,7.40
2018,12,12,11,36,7.40
2018,12,12,11,37,7.50
2018,12,12,11,38,7.50
2018,12,12,11,39,7.50
2018,12,12,11,40,7.50
2018,12,12,11,41,7.50
2018,12,12,11,42,7.50
2018,12,12,11,43,7.50
2018,12,12,11,44,7.50
2018,12,12,11,45,7.50
2018,12,12,11,46,7.50
2018,12,12,11,47,7.50
2018,12,12,11,48,7.50
2018,12,12,11,49,7.50
2018,12,12,11,50,7.50
2018,12,12,11,51,7.50
2018,12,12,11,52,7.50
2018,12,12,11,53,7.50
2018,12,12,11,54,7.50
2018,12,12,11,55,7.50
2018,12,12,11,56,7.50
2018,12,12,11,57,7.50
2018,12,12,11,58,7.50
2018,12,12,11,59,7.50
2018,12,12,12,00,7.50
2018,12,12,12,01,7.50
2018,12,12,12,02,7.50
2018,12,12,12,03,7.50
2018,12,12,12,04,7.50
2018,12,12,12,05,7.50
2018,12,12,12,06,7.50
2018,12,12,12,07,7.40
2018,12,12,12,08,7.40
2018,12,12,12,09,7.40
2018,12,12,12,10,7.40
2018,12,12,12,11,7.40
2018,12,12,12,12,7.40
2018,12,12,12,13,7.40
2018,12,12,12,14,7.40
2018,12,12,12,15,7.40
2018,12,12,12,16,7.40
2018,12,12,12,17,7.40
2018,12,12,12,18,7.40
2018,12,12,12,19,7.40
2018,12,12,12,20,7.40
2018,12,12,12,21,7.40
2018,12,12,12,22,7.40
2018,12,12,12,23,7.40
2018,12,12,12,24,7.30
2018,12,12,12,25,7.30
2018,12,12,12,26,7.30
2018,12,12,12,27,7.30
2018,12,12,12,28,7.30
2018,12,12,12,29,7.30
2018,12,12,12,30,7.30
2018,12,12,12,31,7.30
2018,12,12,12,32,7.30
2018,12,12,12,33,7.30
2018,12,12,12,34,7.30
2018,12,12,12,35,7.30
2018,12,12,12,36,7.30
2018,12,12,12,37,7.30
2018,12,12,12,38,7.30
2018,12,12,12,39,7.30
2018,12,12,12,40,7.30
2018,12,12,12,41,7.30
2018,12,12,12,42,7.30
2018,12,12,12,43,7.30
2018,12,12,12,44,7.30
2018,12,12,12,45,7.30
2018,12,12,12,46,7.30
2018,12,12,12,47,7.30
2018,12,12,12,48,7.30
2018,12,12,12,49,7.30
2018,12,12,12,50,7.30
2018,12,12,12,51,7.30
2018,12,12,12,52,7.40
2018,12,12,12,53,7.40
2018,12,12,12,54,7.40
2018,12,12,12,55,7.40
2018,12,12,12,56,7.40
2018,12,12,12,57,7.40
2018,12,12,12,58,7.40
2018,12,12,12,59,7.40
2018,12,12,13,00,7.40
2018,12,12,13,01,7.50
2018,12,12,13,02,7.50
2018,12,12,13,03,7.50
2018,12,12,13,04,7.50
2018,12,12,13,05,7.60
2018,12,12,13,06,7.60
2018,12,12,13,07,7.60
2018,12,12,13,08,7.60
2018,12,12,13,09,7.60
2018,12,12,13,10,7.60
2018,12,12,13,11,7.70
2018,12,12,13,12,7.70
2018,12,12,13,13,7.70
2018,12,12,13,14,7.70
2018,12,12,13,15,7.70
2018,12,12,13,16,7.80
2018,12,12,13,17,7.80
2018,12,12,13,18,7.80
2018,12,12,13,19,7.90
2018,12,12,13,20,7.90
2018,12,12,13,21,8.00
2018,12,12,13,22,8.00
2018,12,12,13,23,8.10
2018,12,12,13,24,8.20
2018,12,12,13,25,8.20
2018,12,12,13,26,8.30
2018,12,12,13,27,8.40
2018,12,12,13,28,8.50
2018,12,12,13,29,8.60
2018,12,12,13,30,8.60
2018,12,12,13,31,8.70
2018,12,12,13,32,8.80
2018,12,12,13,33,8.80
2018,12,12,13,34,8.90
2018,12,12,13,35,8.90
2018,12,12,13,36,8.90
2018,12,12,13,37,8.90
2018,12,12,13,38,8.90
2018,12,12,13,39,8.90
2018,12,12,13,40,8.90
2018,12,12,13,41,8.90
2018,12,12,13,42,8.90
2018,12,12,13,43,8.90
2018,12,12,13,44,8.90
2018,12,12,13,45,8.90
2018,12,12,13,46,8.90
2018,12,12,13,47,8.90
2018,12,12,13,48,8.90
2018,12,12,13,49,8.90
2018,12,12,13,50,8.90
2018,12,12,13,51,8.90
2018,12,12,13,52,8.90
2018,12,12,13,53,8.80
2018,12,12,13,54,8.80
2018,12,12,13,55,8.80
2018,12,12,13,56,8.80
2018,12,12,13,57,8.80
2018,12,12,13,58,8.80
2018,12,12,13,59,8.90
2018,12,12,14,00,8.90
2018,12,12,14,01,8.90
2018,12,12,14,02,8.90
2018,12,12,14,03,8.90
2018,12,12,14,04,8.90
2018,12,12,14,05,8.90
2018,12,12,14,06,8.80
2018,12,12,14,07,8.80
2018,12,12,14,08,8.80
2018,12,12,14,09,8.80
2018,12,12,14,10,8.80
2018,12,12,14,11,8.80
2018,12,12,14,12,8.80
2018,12,12,14,13,8.70
2018,12,12,14,14,8.70
2018,12,12,14,15,8.70
2018,12,12,14,16,8.70
2018,12,12,14,17,8.70
2018,12,12,14,18,8.70
2018,12,12,14,19,8.70
2018,12,12,14,20,8.70
2018,12,12,14,21,8.70
2018,12,12,14,22,8.70
2018,12,12,14,23,8.70
2018,12,12,14,24,8.70
2018,12,12,14,25,8.70
2018,12,12,14,26,8.70
2018,12,12,14,27,8.60
2018,12,12,14,28,8.60
2018,12,12,14,29,8.60
2018,12,12,14,30,8.60
2018,12,12,14,31,8.60
2018,12,12,14,32,8.60
2018,12,12,14,33,8.70
2018,12,12,14,34,8.70
2018,12,12,14,35,8.70
2018,12,12,14,36,8.70
2018,12,12,14,37,8.70
2018,12,12,14,38,8.70
2018,12,12,14,39,8.70
2018,12,12,14,40,8.70
2018,12,12,14,41,8.70
2018,12,12,14,42,8.70
2018,12,12,14,43,8.70
2018,12,12,14,44,8.70
2018,12,12,14,45,8.70
2018,12,12,14,46,8.70
2018,12,12,14,47,8.80
2018,12,12,14,48,8.80
2018,12,12,14,49,8.80
2018,12,12,14,50,8.80
2018,12,12,14,51,8.80
2018,12,12,14,52,8.80
2018,12,12,14,53,8.80
2018,12,12,14,54,8.80
2018,12,12,14,55,8.80
2018,12,12,14,56,8.80
2018,12,12,14,57,8.80
2018,12,12,14,58,8.80
2018,12,12,14,59,8.80
2018,12,12,15,00,8.80
2018,12,12,15,01,8.80
2018,12,12,15,02,8.80
2018,12,12,15,03,8.80
2018,12,12,15,04,8.80
2018,12,12,15,05,8.80
2018,12,12,15,06,8.80
2018,12,12,15,07,8.80
2018,12,12,15,08,8.80
2018,12,12,15,09,8.70
2018,12,12,15,10,8.70
2018,12,12,15,11,8.70
2018,12,12,15,12,8.70
2018,12,12,15,13,8.70
2018,12,12,15,14,8.70
2018,12,12,15,15,8.70
2018,12,12,15,16,8.70
2018,12,12,15,17,8.70
2018,12,12,15,18,8.70
2018,12,12,15,19,8.70
2018,12,12,15,20,8.70
2018,12,12,15,21,8.70
2018,12,12,15,22,8.70
2018,12,12,15,23,8.70
2018,12,12,15,24,8.70
2018,12,12,15,25,8.70
2018,12,12,15,26,8.70
2018,12,12,15,27,8.70
2018,12,12,15,28,8.70
2018,12,12,15,29,8.60
2018,12,12,15,30,8.60
2018,12,12,15,31,8.60
2018,12,12,15,32,8.60
2018,12,12,15,33,8.60
2018,12,12,15,34,8.50
2018,12,12,15,35,8.50
2018,12,12,15,36,8.50
2018,12,12,15,37,8.40
2018,12,12,15,38,8.40
2018,12,12,15,39,8.40
2018,12,12,15,40,8.40
2018,12,12,15,41,8.40
2018,12,12,15,42,8.40
2018,12,12,15,43,8.40
2018,12,12,15,44,8.40
2018,12,12,15,45,8.40
2018,12,12,15,46,8.40
2018,12,12,15,47,8.40
2018,12,12,15,48,8.40
2018,12,12,15,49,8.30
2018,12,12,15,50,8.30
2018,12,12,15,51,8.30
2018,12,12,15,52,8.30
2018,12,12,15,53,8.30
2018,12,12,15,54,8.30
2018,12,12,15,55,8.30
2018,12,12,15,56,8.30
2018,12,12,15,57,8.30
2018,12,12,15,58,8.20
2018,12,12,15,59,8.20
2018,12,12,16,00,8.20
2018,12,12,16,01,8.20
2018,12,12,16,02,8.10
2018,12,12,16,03,8.10
2018,12,12,16,04,8.10
2018,12,12,16,05,8.10
2018,12,12,16,06,8.00
2018,12,12,16,07,8.00
2018,12,12,16,08,7.90
2018,12,12,16,09,7.90
2018,12,12,16,10,7.90
2018,12,12,16,11,7.90
2018,12,12,16,12,7.90
2018,12,12,16,13,7.80
2018,12,12,16,14,7.80
2018,12,12,16,15,7.80
2018,12,12,16,16,7.80
2018,12,12,16,17,7.80
2018,12,12,16,18,7.80
2018,12,12,16,19,7.80
2018,12,12,16,20,7.80
2018,12,12,16,21,7.80
2018,12,12,16,22,7.70
2018,12,12,16,23,7.70
2018,12,12,16,24,7.70
2018,12,12,16,25,7.70
2018,12,12,16,26,7.70
2018,12,12,16,27,7.70
2018,12,12,16,28,7.70
2018,12,12,16,29,7.60
2018,12,12,16,30,7.60
2018,12,12,16,31,7.60
2018,12,12,16,32,7.60
2018,12,12,16,33,7.60
2018,12,12,16,34,7.60
2018,12,12,16,35,7.60
2018,12,12,16,36,7.60
2018,12,12,16,37,7.60
2018,12,12,16,38,7.60
2018,12,12,16,39,7.60
2018,12,12,16,40,7.60
2018,12,12,16,41,7.60
2018,12,12,16,42,7.60
2018,12,12,16,43,7.60
2018,12,12,16,44,7.60
2018,12,12,16,45,7.60
2018,12,12,16,46,7.60
2018,12,12,16,47,7.60
2018,12,12,16,48,7.60
2018,12,12,16,49,7.60
2018,12,12,16,50,7.60
2018,12,12,16,51,7.60
2018,12,12,16,52,7.60
2018,12,12,16,53,7.60
2018,12,12,16,54,7.60
2018,12,12,16,55,7.60
2018,12,12,16,56,7.60
2018,12,12,16,57,7.60
2018,12,12,16,58,7.60
2018,12,12,16,59,7.60
2018,12,12,17,00,7.60
2018,12,12,17,01,7.60
2018,12,12,17,02,7.60
2018,12,12,17,03,7.60
2018,12,12,17,04,7.60
2018,12,12,17,05,7.60
2018,12,12,17,06,7.60
2018,12,12,17,07,7.60
2018,12,12,17,08,7.60
2018,12,12,17,09,7.70
2018,12,12,17,10,7.80
2018,12,12,17,11,7.80
2018,12,12,17,12,7.80
2018,12,12,17,13,7.80
2018,12,12,17,14,7.90
2018,12,12,17,15,7.90
2018,12,12,17,16,7.90
2018,12,12,17,17,7.90
2018,12,12,17,18,7.90
2018,12,12,17,19,7.90
2018,12,12,17,20,7.90
2018,12,12,17,21,7.90
2018,12,12,17,22,7.90
2018,12,12,17,23,7.90
2018,12,12,17,24,7.90
2018,12,12,17,25,7.90
2018,12,12,17,26,7.90
2018,12,12,17,27,7.90
2018,12,12,17,28,7.90
2018,12,12,17,29,7.90
2018,12,12,17,30,7.90
2018,12,12,17,31,8.00
2018,12,12,17,32,8.00
2018,12,12,17,33,8.00
2018,12,12,17,34,8.10
2018,12,12,17,35,8.10
2018,12,12,17,36,8.10
2018,12,12,17,37,8.10
2018,12,12,17,38,8.10
2018,12,12,17,39,8.10
2018,12,12,17,40,8.10
2018,12,12,17,41,8.20
2018,12,12,17,42,8.20
2018,12,12,17,43,8.20
2018,12,12,17,44,8.20
2018,12,12,17,45,8.20
2018,12,12,17,46,8.20
2018,12,12,17,47,8.20
2018,12,12,17,48,8.20
2018,12,12,17,49,8.20
2018,12,12,17,50,8.20
2018,12,12,17,51,8.20
2018,12,12,17,52,8.30
2018,12,12,17,53,8.30
2018,12,12,17,54,8.30
2018,12,12,17,55,8.30
2018,12,12,17,56,8.30
2018,12,12,17,57,8.30
2018,12,12,17,58,8.30
2018,12,12,17,59,8.30
2018,12,12,18,00,8.30
2018,12,12,18,01,8.30
2018,12,12,18,02,8.40
2018,12,12,18,03,8.40
2018,12,12,18,04,8.40
2018,12,12,18,05,8.40
2018,12,12,18,06,8.40